Lid_Strength_Index
2 3 6 9 14 15 17 14 13 11 10 7 6 8 9 8 10 12 2 0 -0 0 -1 -1 -1 -2 -2 -2 -2 -2 -1 -1 -1 -1 -1 -1 -1 -1 -1 -1 -1 -1 -1 -2 -2 -2 -2 -1 -1
2 4 8 11 15 18 17 12 11 10 8 7 6 7 8 9 5 4 3 0 -0 -0 -1 -1 -1 -2 -1 -1 -1 -1 -1 -1 -1 -1 -1 -1 -1 -0 -0 -0 -1 -1 -1 -2 -2 -2 -1 -1 -0
3 6 10 13 15 18 17 13 10 10 8 8 8 6 7 8 4 4 1 0 -0 -0 -1 -1 -1 -1 -1 -1 -1 -1 -1 -0 -0 -0 -0 0 0 0 -0 -0 -0 -1 -1 -1 -1 -1 -1 -0 -1
5 6 9 13 16 16 14 13 11 10 8 6 7 9 5 3 3 2 0 -0 -0 -0 -0 -1 -2 -1 -1 -1 -0 0 0 0 1 1 1 1 1 0 0 0 -0 -0 -1 -1 -1 -1 -1 -0 -0
5 8 12 13 15 14 14 13 12 10 8 8 7 9 8 3 1 1 0 0 0 0 0 0 -1 -0 0 0 1 1 1 1 1 1 1 1 1 1 1 0 0 0 -0 -1 -1 -1 -0 -0 -0
8 9 14 14 14 14 14 12 11 8 8 7 8 8 7 2 2 1 1 1 1 2 2 2 2 1 1 2 2 2 2 2 2 2 2 2 1 1 1 1 0 0 0 -0 -0 -0 -0 -0 -0
9 10 14 13 15 14 14 13 12 10 9 8 6 9 6 4 2 2 2 2 3 3 3 3 3 3 2 2 2 2 2 3 2 3 3 2 3 2 2 1 1 0 -0 -0 0 0 0 1 1
10 10 14 14 16 15 14 12 10 8 9 6 6 10 8 4 3 2 2 3 3 2 4 5 4 6 6 5 3 3 2 3 3 3 3 4 4 3 3 3 2 2 1 1 1 1 1 1 1
8 12 14 14 16 14 13 11 8 7 8 7 6 7 5 3 3 3 3 3 3 2 2 3 4 6 7 6 5 4 3 4 4 4 4 5 6 6 6 4 3 2 2 1 1 1 1 2 2
10 12 12 13 14 15 13 12 11 9 8 7 6 5 4 2 3 4 3 3 3 2 2 4 5 6 6 5 5 5 5 6 6 6 6 6 6 6 6 6 4 3 4 3 2 1 2 4 5
10 12 13 12 12 13 12 12 11 11 12 10 7 8 6 5 5 4 3 3 2 2 4 4 5 6 6 6 7 6 6 6 6 7 7 7 7 7 7 7 6 6 5 6 5 5 5 5 5
13 11 12 11 11 12 12 11 12 12 13 9 7 7 7 7 6 5 4 3 2 2 4 4 5 5 5 6 7 7 7 7 7 7 7 7 8 8 7 7 6 6 6 6 5 6 6 5 4
12 12 11 11 11 11 10 12 12 12 10 9 8 7 8 8 7 6 5 4 2 3 4 5 4 5 5 6 7 7 7 7 7 7 7 7 7 7 7 6 5 6 6 6 6 5 5 5 5
10 11 12 11 11 11 11 12 11 11 9 10 9 9 8 8 8 6 5 3 4 5 5 4 4 4 5 6 7 7 7 7 7 7 6 5 5 6 6 6 5 5 6 6 6 6 6 4 4
10 11 12 12 12 12 12 13 13 11 9 10 11 11 10 9 9 8 6 5 5 7 6 5 4 4 5 5 6 6 6 6 7 6 5 5 5 5 5 5 5 4 4 4 4 5 6 4 4
11 12 14 11 12 11 12 15 13 10 10 11 12 11 11 10 10 9 9 9 8 7 7 6 4 4 5 6 6 6 6 6 6 6 6 6 6 5 5 5 5 5 5 5 5 6 6 6 5
11 15 14 13 11 12 12 13 12 11 10 11 11 12 12 12 11 11 10 10 9 8 7 7 5 5 5 5 6 6 6 6 6 6 6 7 6 6 7 7 7 6 7 7 6 6 7 7 6
15 15 14 14 11 12 14 14 12 11 11 11 11 12 12 12 11 10 10 9 9 9 7 6 5 6 5 6 6 6 6 7 6 7 8 8 8 7 7 7 7 7 7 7 8 7 8 8 7
11 13 14 12 11 12 13 13 12 11 12 12 11 11 11 11 11 11 11 11 10 10 9 8 7 7 7 8 8 7 7 7 8 9 9 9 9 9 8 8 8 8 8 8 8 8 9 9 8
12 14 15 12 11 12 12 12 11 11 11 11 11 10 10 11 11 11 11 11 11 11 10 10 8 7 7 8 8 7 8 9 10 12 12 11 12 11 10 9 9 8 8 9 10 10 9 10 10
13 14 13 13 12 12 14 15 14 11 10 10 10 10 9 10 11 11 11 11 11 11 11 10 9 9 8 8 7 8 9 9 11 13 14 14 13 12 11 11 10 10 10 11 12 12 12 11 11
14 11 12 12 14 18 14 20 15 13 12 11 10 10 9 10 10 10 10 11 11 11 11 11 10 10 9 8 8 9 9 10 12 13 14 15 14 14 13 11 11 11 11 13 13 14 14 13 13
13 11 12 13 14 16 17 18 16 14 13 12 11 10 10 10 10 10 10 10 11 11 12 11 11 11 10 8 7 7 8 10 11 14 15 15 15 15 14 13 13 12 13 14 15 15 14 13 14
10 12 13 14 15 22 17 18 18 16 13 12 11 11 10 10 10 10 10 10 11 12 11 11 11 11 11 9 7 8 9 11 12 14 16 16 16 15 15 13 13 13 14 15 15 15 14 14 15
12 14 20 21 22 21 16 17 16 13 12 11 11 11 11 10 10 10 11 11 11 12 12 12 12 12 12 11 10 9 10 11 12 14 16 16 17 16 16 14 14 14 14 15 15 15 16 16 16
13 14 18 22 21 19 16 18 15 12 12 11 11 11 11 11 10 10 10 11 12 12 12 12 13 13 13 13 13 12 12 12 13 15 16 16 17 16 15 15 14 14 15 15 15 16 16 16 15
12 15 12 16 19 19 18 16 14 13 13 13 12 12 12 11 11 11 11 11 12 12 12 12 13 14 14 14 14 14 14 14 15 16 16 17 16 16 16 15 15 15 16 16 16 16 16 16 16
11 10 15 15 22 22 19 18 16 15 14 13 13 13 12 12 12 13 13 13 13 12 12 13 13 14 15 15 15 15 16 16 16 16 17 17 17 16 16 16 16 16 16 16 17 17 16 16 17
12 13 13 13 15 19 20 19 15 14 13 13 13 13 12 13 13 13 13 13 13 13 14 14 14 15 16 16 16 16 16 16 16 17 17 17 17 17 17 16 17 17 17 17 17 17 17 17 17
11 12 12 16 17 16 16 17 13 13 12 13 12 12 12 12 13 13 13 14 14 14 15 15 15 16 16 17 17 17 16 16 16 17 17 17 17 17 17 17 17 17 17 17 17 18 18 18 19